Nasa Shuttle, FL

4:46 PM EST on January 16, 2018 (GMT -0500)
Nasa Shuttle

Weather History for KTTS - June, 2013

Change the Weather History Date:

Sunday, June 30, 2013

  Actual Average Record
Temperature  
Mean Temperature 82 °F -  
Max Temperature 91 °F 85 °F 96 °F (1998)
Min Temperature 74 °F 70 °F 69 °F (2001)
Cooling Degree Days 17    
Growing Degree Days 32 (Base 50)    
Moisture  
Dew Point 74 °F    
Average Humidity 88    
Maximum Humidity 100    
Minimum Humidity 58    
Precipitation  
Precipitation 0.72 in - - ()
Sea Level Pressure  
Sea Level Pressure 29.88 in    
Wind  
Wind Speed 9 mph (South)    
Max Wind Speed 20 mph    
Max Gust Speed 29 mph    
Visibility 9 miles    
Events Rain , Thunderstorm    
Averages and records for this station are not official NWS values.
T = Trace of Precipitation, MM = Missing Value Source: NWS Daily Summary

Daily Weather History Graph

Daily Weather History Graph

Search for Another Location

Airport or City:

Trip Planner

Search our weather history database for the weather conditions in past years. The results will help you decide how hot, cold, wet, or windy it might be!

Date:

Astronomy

Jun. 30, 2013 Rise Set
Actual Time 6:28 AM EDT 8:24 PM EDT
Civil Twilight 6:01 AM EDT 8:51 PM EDT
Nautical Twilight 5:28 AM EDT 9:24 PM EDT
Astronomical Twilight 4:54 AM EDT 9:58 PM EDT
Moon 1:02 AM EDT (6/30) 1:58 PM EDT (6/30)
Length of Visible Light 14h 50m
Length of Day
13h 56m
Last Quarter, 45% of the Moon is Illuminated
Jun 30
Last Quarter
Jul 8
New
Jul 15
First Quarter
Jul 22
Full
Jul 29
Last Quarter

Hourly Weather History & Observations

Time (EDT) Temp. Heat Index Dew Point Humidity Pressure Visibility Wind Dir Wind Speed Gust Speed Precip Events Conditions
12:58 AM 75.9 °F - 72.0 °F 87% 29.87 in 10.0 mi South 6.9 mph - N/A   Clear
1:58 AM 75.6 °F - 72.5 °F 90% 29.86 in 10.0 mi South 8.1 mph - N/A   Overcast
2:58 AM 76.1 °F - 72.7 °F 89% 29.86 in 10.0 mi SSW 8.1 mph - N/A   Scattered Clouds
3:58 AM 75.6 °F - 72.1 °F 89% 29.85 in 10.0 mi South 9.2 mph - N/A   Mostly Cloudy
4:58 AM 75.6 °F - 72.9 °F 91% 29.85 in 10.0 mi SSW 8.1 mph - N/A   Clear
5:58 AM 76.1 °F - 73.9 °F 93% 29.85 in 9.0 mi SSW 6.9 mph - N/A   Clear
6:58 AM 76.5 °F - 74.8 °F 95% 29.87 in 9.0 mi SSW 6.9 mph - N/A   Mostly Cloudy
7:58 AM 78.8 °F - 75.7 °F 90% 29.87 in 7.0 mi SSW 10.4 mph - N/A   Clear
8:58 AM 81.0 °F 87.1 °F 75.7 °F 84% 29.89 in 10.0 mi SSW 9.2 mph - N/A   Clear
9:58 AM 83.8 °F 92.5 °F 76.1 °F 77% 29.89 in 7.0 mi SSW 9.2 mph - N/A   Partly Cloudy
10:58 AM 86.2 °F 95.5 °F 75.4 °F 70% 29.88 in 7.0 mi SSW 8.1 mph - N/A   Clear
11:58 AM 88.0 °F 96.5 °F 74.1 °F 63% 29.87 in 6.0 mi SSW 11.5 mph - N/A   Haze
12:58 PM 90.3 °F 99.3 °F 73.8 °F 58% 29.86 in 7.0 mi SSW 9.2 mph - N/A   Mostly Cloudy
1:48 PM 89.6 °F 98.2 °F 73.4 °F 59% 29.84 in 7.0 mi SW 10.4 mph - N/A Thunderstorm Thunderstorm
1:52 PM 89.6 °F 98.2 °F 73.4 °F 59% 29.86 in 7.0 mi WSW 19.6 mph 23.0 mph N/A Rain , Thunderstorm Light Thunderstorms and Rain
1:57 PM 84.2 °F 90.9 °F 73.4 °F 70% 29.86 in 7.0 mi SSW 17.3 mph 24.2 mph N/A Rain , Thunderstorm Heavy Thunderstorms and Rain
1:58 PM 86.5 °F 94.2 °F 73.4 °F 65% 29.87 in 7.0 mi SSW 17.3 mph 24.2 mph 0.07 in Rain , Thunderstorm Heavy Thunderstorms and Rain
2:08 PM 75.2 °F - 69.8 °F 83% 29.87 in 7.0 mi SSE 11.5 mph 28.8 mph N/A Rain , Thunderstorm Thunderstorms and Rain
2:39 PM 75.2 °F - 73.4 °F 94% 29.87 in 10.0 mi South 10.4 mph - N/A Thunderstorm Thunderstorm
2:45 PM 75.2 °F - 73.4 °F 94% 29.88 in 10.0 mi South 10.4 mph - N/A Thunderstorm Scattered Clouds
2:58 PM 75.6 °F - 73.8 °F 94% 29.89 in 10.0 mi South 8.1 mph - 0.58 in   Scattered Clouds
3:27 PM 75.2 °F - 73.4 °F 94% 29.89 in 10.0 mi SSE 6.9 mph - N/A Rain Light Rain
3:58 PM 75.2 °F - 73.0 °F 93% 29.89 in 10.0 mi SSE 8.1 mph - 0.00 in Rain Light Rain
4:08 PM 75.2 °F - 73.4 °F 94% 29.88 in 10.0 mi SSE 6.9 mph - N/A   Partly Cloudy
4:47 PM 77.0 °F - 73.4 °F 89% 29.91 in 10.0 mi SSW 17.3 mph 25.3 mph N/A Rain , Thunderstorm Light Rain
5:09 PM - - - N/A% - - WSW 13.8 mph 25.3 mph N/A   Unknown
5:10 PM 77.0 °F - 73.4 °F 89% 29.91 in 7.0 mi SW 16.1 mph 25.3 mph N/A Rain , Thunderstorm Rain
5:58 PM 75.0 °F - 73.4 °F 95% 29.89 in 10.0 mi SW 6.9 mph - 0.04 in Rain Light Rain
6:58 PM 75.6 °F - 74.7 °F 97% 29.91 in 10.0 mi SSE 8.1 mph - 0.01 in Rain Light Rain
7:49 PM 75.2 °F - 75.2 °F 100% 29.91 in 10.0 mi SSE 13.8 mph - N/A   Clear
7:57 PM 75.2 °F - 75.2 °F 100% 29.90 in 10.0 mi SSE 10.4 mph 19.6 mph N/A Rain Light Rain
7:58 PM 75.2 °F - 75.2 °F 100% 29.91 in 10.0 mi SSE 10.4 mph 19.6 mph 0.01 in Rain Light Rain
8:08 PM 75.2 °F - 75.2 °F 100% 29.89 in 10.0 mi SSE 11.5 mph - N/A   Partly Cloudy
8:44 PM 75.2 °F - 75.2 °F 100% 29.89 in 10.0 mi SSW 5.8 mph - N/A Rain Light Rain
8:58 PM 75.4 °F - 75.2 °F 99% 29.89 in 10.0 mi South 5.8 mph - 0.00 in Rain Light Rain
9:17 PM 75.2 °F - 73.4 °F 94% 29.88 in 10.0 mi South 9.2 mph - N/A   Clear
9:58 PM 74.5 °F - 73.9 °F 98% 29.88 in 10.0 mi South 9.2 mph - 0.01 in   Clear
10:58 PM 74.7 °F - 74.3 °F 99% 29.92 in 10.0 mi South 10.4 mph - N/A   Scattered Clouds
11:58 PM 74.8 °F - 74.7 °F 99% 29.93 in 10.0 mi South 8.1 mph - N/A   Scattered Clouds